Location: Carrières
(48.9495°N, 2.0407°E)
Time: 21:14:38
(UTC+00:00)

Transit 2A - Pass Details

Date: 22 April 2024
Orbit: 594 x 957 km, 66.7° (Epoch: 18 May)

Event Time Altitude Azimuth Distance (km) Brightness Sun altitude
Rises 12:17:54 0° 326° (NW) 3,160 8.9 53.1°
Reaches altitude 10° 12:20:40 10° 341° (NNW) 2,301 8.3 53.0°
Maximum altitude 12:24:53 23° 34° (NE) 1,652 7.7 52.8°
Drops below altitude 10° 12:29:24 10° 86° (E) 2,491 8.6 52.6°
Sets 12:32:30 0° 100° (E) 3,487 9.4 52.5°
